Location: Sungai Anya
(2.6167°N, 114.0500°E)
Time: 19:30:55
(UTC+00:00)

Cosmos 1328 - Pass Details

Date: 19 October 2021
Orbit: 528 x 552 km, 82.5° (Epoch: 07 December)

Event Time Altitude Azimuth Distance (km) Brightness Sun altitude
Rises 11:45:19 0° 348° (NNW) 2,711 7.4 -24.2°
Reaches altitude 10° 11:47:31 10° 343° (NNW) 1,820 6.5 -24.8°
Maximum altitude 11:51:25 52° 267° (W) 683 4.5 -25.7°
Drops below altitude 10° 11:55:20 10° 189° (S) 1,822 6.7 -26.7°
Sets 11:57:32 0° 184° (S) 2,714 7.5 -27.2°
